Weather History for Lawrence, MA

Change the Weather History Date:

Sunday, December 29, 2013

  Actual Average Record
Temperature  
Mean Temperature 36 °F -  
Max Temperature 43 °F 36 °F 64 °F (1982)
Min Temperature 30 °F 19 °F -19 °F (1933)
Degree Days  
Heating Degree Days 28    
Moisture  
Dew Point 30 °F    
Average Humidity 78    
Maximum Humidity 93    
Minimum Humidity 51    
Precipitation  
Precipitation 1.10 in - - ()
Sea Level Pressure  
Sea Level Pressure 29.76 in    
Wind  
Wind Speed 6 mph (NNE)    
Max Wind Speed 17 mph    
Max Gust Speed 30 mph    
Visibility 7 miles    
Events Rain    
Averages and records for this station are not official NWS values.
T = Trace of Precipitation, MM = Missing Value Source: NWS Daily Summary

Daily Weather History Graph

Daily Weather History Graph

Search for Another Location

Airport:

Trip Planner

Search our weather history database for the weather conditions in past years. The results will help you decide how hot, cold, wet, or windy it might be!

Date:

Astronomy

Dec. 29, 2013 Rise Set
Actual Time 7:14 AM EST 4:19 PM EST
Civil Twilight 6:42 AM EST 4:51 PM EST
Nautical Twilight 6:06 AM EST 5:26 PM EST
Astronomical Twilight 5:32 AM EST 6:01 PM EST
Moon 3:52 AM EST (12/29) 1:56 PM EST (12/29)
Length of Visible Light 10h 08m
Length of Day
9h 04m
Waning Crescent, 11% of the Moon is Illuminated
Dec 29
Waning Crescent
Jan 1
New
Jan 7
First Quarter
Jan 15
Full
Jan 24
Last Quarter

Hourly Weather History & Observations

Time (EST) Temp. Windchill Dew Point Humidity Pressure Visibility Wind Dir Wind Speed Gust Speed Precip Events Conditions
12:54 AM 35.1 °F 30.1 °F 23.0 °F 61% 30.03 in 10.0 mi South 5.8 mph - N/A   Clear
1:54 AM 32.0 °F - 23.0 °F 69% 30.02 in 10.0 mi Calm Calm - N/A   Clear
2:54 AM 30.9 °F 26.2 °F 23.0 °F 72% 30.04 in 10.0 mi SSW 4.6 mph - N/A   Clear
3:54 AM 35.1 °F 31.0 °F 24.1 °F 64% 30.03 in 10.0 mi South 4.6 mph - N/A   Clear
4:54 AM 34.0 °F 29.8 °F 24.1 °F 67% 30.03 in 10.0 mi SSW 4.6 mph - N/A   Clear
5:54 AM 32.0 °F - 24.1 °F 73% 30.01 in 10.0 mi Calm Calm - N/A   Clear
6:54 AM 32.0 °F - 24.1 °F 73% 30.01 in 10.0 mi Calm Calm - 0.00 in   Overcast
7:54 AM 33.1 °F 30.0 °F 25.0 °F 72% 30.01 in 10.0 mi South 3.5 mph - 0.00 in   Overcast
8:54 AM 35.1 °F 32.2 °F 26.1 °F 70% 30.02 in 10.0 mi West 3.5 mph - N/A   Overcast
9:54 AM 39.0 °F - 26.1 °F 60% 30.01 in 10.0 mi Calm Calm - N/A   Mostly Cloudy
10:54 AM 39.9 °F 37.8 °F 27.0 °F 60% 29.95 in 10.0 mi SW 3.5 mph - N/A   Mostly Cloudy
11:54 AM 42.1 °F 37.7 °F 27.0 °F 55% 29.94 in 10.0 mi SW 6.9 mph - N/A   Overcast
12:54 PM 43.0 °F - 26.1 °F 51% 29.89 in 10.0 mi Calm Calm - N/A   Overcast
1:54 PM 42.1 °F 38.4 °F 30.0 °F 62% 29.86 in 9.0 mi South 5.8 mph - 0.00 in Rain Light Rain
2:54 PM 39.9 °F 37.8 °F 33.1 °F 77% 29.84 in 6.0 mi SSW 3.5 mph - 0.02 in Rain Light Rain
3:54 PM 39.0 °F 36.8 °F 35.1 °F 86% 29.79 in 4.0 mi ENE 3.5 mph - 0.09 in Rain Rain
4:54 PM 39.0 °F 34.8 °F 35.1 °F 86% 29.72 in 4.0 mi ESE 5.8 mph - 0.12 in Rain Rain
5:02 PM 39.0 °F 34.0 °F 35.1 °F 86% 29.71 in 4.0 mi East 6.9 mph - 0.02 in Rain Rain
5:36 PM 37.9 °F 30.9 °F 35.1 °F 89% 29.65 in 3.0 mi NE 10.4 mph - 0.10 in Rain Rain
5:40 PM 37.9 °F 32.1 °F 35.1 °F 89% 29.64 in 3.0 mi ENE 8.1 mph - 0.11 in Rain Rain
5:54 PM 37.9 °F 32.7 °F 35.1 °F 89% 29.64 in 3.0 mi ENE 6.9 mph - 0.15 in Rain Rain
6:17 PM 37.9 °F 30.9 °F 35.1 °F 89% 29.60 in 2.5 mi NE 10.4 mph - 0.12 in Rain Heavy Rain
6:26 PM 39.0 °F 33.4 °F 35.1 °F 86% 29.62 in 3.0 mi NE 8.1 mph - 0.16 in Rain Rain
6:46 PM 37.9 °F 31.5 °F 35.1 °F 89% 29.61 in 2.5 mi NNE 9.2 mph - 0.26 in Rain Rain
6:54 PM 37.9 °F 32.1 °F 35.1 °F 89% 29.61 in 2.0 mi NNE 8.1 mph - 0.30 in Rain Heavy Rain
7:54 PM 37.0 °F 28.1 °F 34.0 °F 89% 29.58 in 4.0 mi North 15.0 mph - 0.25 in Rain Rain
8:50 PM 35.6 °F 27.5 °F 33.8 °F 93% 29.47 in 3.0 mi North 11.5 mph 29.9 mph 0.06 in   Overcast
8:54 PM 36.0 °F 28.5 °F 33.1 °F 89% 29.48 in 3.0 mi NW 10.4 mph 17.3 mph 0.06 in Rain Light Rain
9:07 PM 36.0 °F 26.0 °F 32.0 °F 86% 29.46 in 4.0 mi NNE 17.3 mph 20.7 mph 0.00 in Rain Light Rain
9:23 PM 37.0 °F 28.5 °F 33.1 °F 86% 29.44 in 4.0 mi North 13.8 mph 28.8 mph 0.01 in Rain Light Rain
9:35 PM 37.0 °F 28.1 °F 33.1 °F 86% 29.46 in 5.0 mi North 15.0 mph 25.3 mph 0.02 in Rain Light Rain
9:54 PM 37.9 °F 28.9 °F 34.0 °F 86% 29.49 in 4.0 mi North 16.1 mph - 0.07 in Rain Rain
10:54 PM 37.0 °F 29.3 °F 33.1 °F 86% 29.51 in 10.0 mi NNW 11.5 mph - 0.04 in Rain Light Rain
11:54 PM 37.0 °F 31.0 °F 32.0 °F 82% 29.55 in 10.0 mi NW 8.1 mph - 0.00 in   Overcast